Satellite-Ground Cal/Val Region Overpasses Predictions

Prediction of Satellite NPP Overpassing Cal/Val Region: PacNW

Region Location: (Latitude: 10.00, Longitude: 139.50) to (Latitude: 22.70, Longitude: 165.60).

Table of predicted overpasses for the next 14.0 days since TLE Epoch: 8/9/2014
Interval Starting Time Starting Location Ending Time Ending Location
1 08/09/2014 02:53:07 ( 10.05, 158.32) 08/09/2014 02:56:42 ( 22.67, 155.31)
2 08/09/2014 15:25:01 ( 22.68, 155.59) 08/09/2014 15:28:37 ( 10.00, 152.56)
3 08/10/2014 02:34:07 ( 10.02, 163.08) 08/10/2014 02:37:43 ( 22.69, 160.06)
4 08/10/2014 15:06:02 ( 22.66, 160.34) 08/10/2014 15:09:37 ( 10.04, 157.32)
5 08/11/2014 02:17:49 ( 19.55, 165.59) 08/11/2014 02:18:42 ( 22.66, 164.82)
6 08/11/2014 03:56:37 ( 10.04, 142.46) 08/11/2014 04:00:08 ( 22.42, 139.50)
7 08/11/2014 14:47:01 ( 22.69, 165.10) 08/11/2014 14:50:37 ( 10.01, 162.07)
8 08/11/2014 16:28:31 ( 22.69, 139.72) 08/11/2014 16:28:46 ( 21.81, 139.50)
9 08/12/2014 03:37:37 ( 10.00, 147.22) 08/12/2014 03:41:13 ( 22.68, 144.19)
10 08/12/2014 16:09:32 ( 22.67, 144.47) 08/12/2014 16:13:07 ( 10.05, 141.46)
11 08/13/2014 03:18:38 ( 10.03, 151.97) 08/13/2014 03:22:13 ( 22.65, 148.96)
12 08/13/2014 15:50:32 ( 22.64, 149.22) 08/13/2014 15:54:07 ( 10.02, 146.21)
13 08/14/2014 02:59:38 ( 10.05, 156.72) 08/14/2014 03:03:13 ( 22.67, 153.70)
14 08/14/2014 15:31:32 ( 22.68, 153.98) 08/14/2014 15:35:07 ( 10.06, 150.97)
15 08/15/2014 02:40:38 ( 10.02, 161.48) 08/15/2014 02:44:14 ( 22.70, 158.45)
16 08/15/2014 15:12:32 ( 22.65, 158.73) 08/15/2014 15:16:07 ( 10.03, 155.72)
17 08/16/2014 02:22:25 ( 12.81, 165.59) 08/16/2014 02:25:13 ( 22.67, 163.21)
18 08/16/2014 04:03:08 ( 10.04, 140.85) 08/16/2014 04:04:46 ( 15.80, 139.51)
19 08/16/2014 14:53:32 ( 22.68, 163.49) 08/16/2014 14:57:08 ( 10.01, 160.47)
20 08/17/2014 03:44:08 ( 10.01, 145.61) 08/17/2014 03:47:44 ( 22.69, 142.59)
21 08/17/2014 14:37:40 ( 11.62, 165.59) 08/17/2014 14:38:07 ( 10.04, 165.23)
22 08/17/2014 16:16:02 ( 22.66, 142.87) 08/17/2014 16:19:37 ( 10.04, 139.85)
23 08/18/2014 03:25:08 ( 10.04, 150.36) 08/18/2014 03:28:43 ( 22.66, 147.35)
24 08/18/2014 15:57:02 ( 22.69, 147.63) 08/18/2014 16:00:38 ( 10.01, 144.60)
25 08/19/2014 03:06:08 ( 10.01, 155.12) 08/19/2014 03:09:44 ( 22.69, 152.10)
26 08/19/2014 15:38:02 ( 22.66, 152.38) 08/19/2014 15:41:37 ( 10.04, 149.36)
27 08/20/2014 02:47:08 ( 10.04, 159.87) 08/20/2014 02:50:43 ( 22.66, 156.86)
28 08/20/2014 15:19:02 ( 22.69, 157.14) 08/20/2014 15:22:38 ( 10.01, 154.11)
29 08/21/2014 02:28:08 ( 10.01, 164.63) 08/21/2014 02:31:44 ( 22.69, 161.61)
30 08/21/2014 15:00:03 ( 22.66, 161.89) 08/21/2014 15:03:38 ( 10.04, 158.87)
31 08/22/2014 03:50:38 ( 10.04, 144.01) 08/22/2014 03:54:13 ( 22.66, 140.99)
32 08/22/2014 14:42:15 ( 18.41, 165.59) 08/22/2014 14:44:38 ( 10.01, 163.62)


NCC Satellite Cal/Val Overpasses Prediction Service
